When you browse on this site, cookies collect data to enhance your experience and personalize the content and advertising you see.
Visit our Privacy Policy to learn more. By continuing to use the site, you agree to this use of cookies and data.
  • en Suisse
  • Liste des pays
  • À 7 jours
  • Température de l'eau
  • Carte satellitaire
  • Carte météo
  • Widgets météo
  • user-avatar
    Se connecter

    Météo par heure à Limassol

    Ce jour, 22 Janvier, Mardi

    Heure Température Précipitation Vent Pression Humidité
    00:00 +12°C° 0 mm 3 m/s 768 mmHg 77%
    01:00 +12°C° 0 mm 3 m/s 768 mmHg 76%
    02:00 +12°C° 0 mm 3 m/s 767 mmHg 76%
    03:00 +11°C° 0 mm 3 m/s 767 mmHg 77%
    04:00 +11°C° 0 mm 3 m/s 767 mmHg 78%
    05:00 +11°C° 0 mm 3 m/s 767 mmHg 80%
    06:00 +12°C° 0 mm 3 m/s 767 mmHg 79%
    07:00 +12°C° 0 mm 3 m/s 767 mmHg 78%
    08:00 +13°C° 0 mm 3 m/s 767 mmHg 77%
    09:00 +15°C° 0 mm 2 m/s 768 mmHg 72%
    10:00 +16°C° 0 mm 2 m/s 768 mmHg 66%
    11:00 +18°C° 0 mm 1 m/s 768 mmHg 61%
    12:00 +18°C° 0 mm 1 m/s 768 mmHg 60%
    13:00 +19°C° 0 mm 1 m/s 767 mmHg 59%
    14:00 +19°C° 0 mm 1 m/s 767 mmHg 58%
    15:00 +18°C° 0 mm 1 m/s 767 mmHg 63%
    16:00 +16°C° 0 mm 1 m/s 767 mmHg 67%
    17:00 +15°C° 0 mm 1 m/s 767 mmHg 71%
    18:00 +15°C° 0 mm 1 m/s 767 mmHg 76%
    19:00 +14°C° 0 mm 1 m/s 768 mmHg 80%
    20:00 +13°C° 0 mm 1 m/s 768 mmHg 84%
    21:00 +13°C° 0 mm 1 m/s 768 mmHg 85%
    22:00 +12°C° 0 mm 1 m/s 768 mmHg 87%
    23:00 +12°C° 0 mm 1 m/s 768 mmHg 89%

    Demain, 23 Janvier, Mercredi

    Heure Température Précipitation Vent Pression Humidité
    00:00 +11°C° 0 mm 1 m/s 768 mmHg 89%
    01:00 +11°C° 0 mm 1 m/s 768 mmHg 90%
    02:00 +11°C° 0 mm 1 m/s 768 mmHg 91%
    03:00 +10°C° 0 mm 2 m/s 768 mmHg 90%
    04:00 +9°C° 0 mm 2 m/s 767 mmHg 90%
    05:00 +9°C° 0 mm 2 m/s 767 mmHg 90%
    06:00 +10°C° 0 mm 2 m/s 767 mmHg 87%
    07:00 +12°C° 0 mm 2 m/s 767 mmHg 84%
    08:00 +13°C° 0 mm 2 m/s 767 mmHg 81%
    09:00 +13°C° 0 mm 3 m/s 768 mmHg 72%
    10:00 +16°C° 0 mm 3 m/s 768 mmHg 64%
    11:00 +17°C° 0 mm 3 m/s 768 mmHg 55%
    12:00 +17°C° 0 mm 3 m/s 767 mmHg 53%
    13:00 +18°C° 0 mm 3 m/s 767 mmHg 51%
    14:00 +18°C° 0 mm 4 m/s 766 mmHg 49%
    15:00 +17°C° 0 mm 4 m/s 766 mmHg 54%
    16:00 +15°C° 0 mm 5 m/s 765 mmHg 59%
    17:00 +14°C° 0 mm 6 m/s 765 mmHg 64%
    18:00 +14°C° 0 mm 6 m/s 765 mmHg 67%
    19:00 +12°C° 0 mm 7 m/s 765 mmHg 70%
    20:00 +11°C° 0 mm 8 m/s 765 mmHg 73%
    21:00 +11°C° 0 mm 8 m/s 764 mmHg 73%
    22:00 +11°C° 0 mm 8 m/s 764 mmHg 73%
    23:00 +11°C° 0 mm 8 m/s 764 mmHg 73%

    Après-demain, 24 Janvier, Jeudi

    Heure Température Précipitation Vent Pression Humidité
    00:00 +11°C° 0 mm 9 m/s 764 mmHg 73%
    01:00 +11°C° 0 mm 9 m/s 763 mmHg 73%
    02:00 +11°C° 0 mm 9 m/s 763 mmHg 73%
    03:00 +11°C° 0 mm 9 m/s 762 mmHg 72%
    04:00 +11°C° 0 mm 9 m/s 762 mmHg 71%
    05:00 +11°C° 0 mm 9 m/s 761 mmHg 70%
    06:00 +12°C° 0 mm 9 m/s 761 mmHg 69%
    07:00 +12°C° 0 mm 9 m/s 761 mmHg 68%
    08:00 +12°C° 0 mm 9 m/s 761 mmHg 67%
    09:00 +15°C° 0 mm 9 m/s 761 mmHg 61%
    10:00 +17°C° 0 mm 8 m/s 761 mmHg 56%
    11:00 +18°C° 0 mm 8 m/s 761 mmHg 51%
    12:00 +17°C° 0.5 mm 7 m/s 761 mmHg 59%
    13:00 +17°C° 0.5 mm 7 m/s 760 mmHg 68%
    14:00 +16°C° 0.5 mm 7 m/s 760 mmHg 77%
    15:00 +15°C° 0.2 mm 6 m/s 761 mmHg 76%
    16:00 +15°C° 0.2 mm 5 m/s 761 mmHg 75%
    17:00 +14°C° 0.2 mm 4 m/s 761 mmHg 74%
    18:00 +14°C° 0.4 mm 5 m/s 762 mmHg 77%
    19:00 +13°C° 0.4 mm 6 m/s 762 mmHg 79%
    20:00 +13°C° 0.4 mm 6 m/s 763 mmHg 82%
    21:00 +13°C° 0 mm 6 m/s 763 mmHg 82%
    22:00 +13°C° 0 mm 6 m/s 764 mmHg 81%
    23:00 +13°C° 0 mm 6 m/s 764 mmHg 81%

    25 Janvier, Vendredi

    Heure Température Précipitation Vent Pression Humidité
    00:00 +13°C° 0 mm 5 m/s 765 mmHg 82%
    01:00 +12°C° 0 mm 5 m/s 765 mmHg 83%
    02:00 +12°C° 0 mm 4 m/s 765 mmHg 84%
    03:00 +11°C° 0 mm 3 m/s 765 mmHg 85%
    04:00 +11°C° 0 mm 3 m/s 765 mmHg 86%
    05:00 +10°C° 0 mm 2 m/s 765 mmHg 86%
    06:00 +12°C° 0 mm 1 m/s 765 mmHg 85%
    07:00 +13°C° 0 mm 1 m/s 766 mmHg 83%
    08:00 +13°C° 0 mm 0 m/s 766 mmHg 81%
    09:00 +15°C° 0 mm 1 m/s 766 mmHg 72%
    10:00 +16°C° 0 mm 1 m/s 767 mmHg 63%
    11:00 +18°C° 0 mm 1 m/s 767 mmHg 55%
    12:00 +17°C° 0 mm 2 m/s 766 mmHg 53%
    13:00 +18°C° 0 mm 2 m/s 766 mmHg 52%
    14:00 +18°C° 0 mm 2 m/s 765 mmHg 51%
    15:00 +17°C° 0 mm 3 m/s 765 mmHg 55%
    16:00 +16°C° 0 mm 3 m/s 765 mmHg 60%
    17:00 +14°C° 0 mm 3 m/s 765 mmHg 64%
    18:00 +13°C° 0 mm 3 m/s 765 mmHg 68%
    19:00 +13°C° 0 mm 3 m/s 765 mmHg 71%
    20:00 +12°C° 0 mm 3 m/s 765 mmHg 74%
    21:00 +13°C° 0 mm 2 m/s 765 mmHg 77%
    22:00 +12°C° 0 mm 2 m/s 765 mmHg 79%
    23:00 +12°C° 0 mm 2 m/s 765 mmHg 81%

    26 Janvier, Samedi

    Heure Température Précipitation Vent Pression Humidité
    00:00 +11°C° 0 mm 3 m/s 765 mmHg 80%
    01:00 +11°C° 0 mm 3 m/s 764 mmHg 79%
    02:00 +11°C° 0 mm 3 m/s 764 mmHg 78%
    03:00 +11°C° 0 mm 4 m/s 764 mmHg 77%
    04:00 +11°C° 0 mm 4 m/s 763 mmHg 77%
    05:00 +10°C° 0 mm 4 m/s 763 mmHg 77%
    06:00 +11°C° 0 mm 4 m/s 763 mmHg 75%
    07:00 +12°C° 0 mm 4 m/s 763 mmHg 73%
    08:00 +13°C° 0 mm 4 m/s 763 mmHg 71%
    09:00 +14°C° 0 mm 4 m/s 763 mmHg 65%
    10:00 +17°C° 0 mm 4 m/s 763 mmHg 59%
    11:00 +18°C° 0 mm 4 m/s 763 mmHg 53%
    12:00 +19°C° 0 mm 4 m/s 762 mmHg 52%
    13:00 +19°C° 0 mm 4 m/s 762 mmHg 51%
    14:00 +19°C° 0 mm 4 m/s 761 mmHg 50%
    15:00 +18°C° 0 mm 4 m/s 761 mmHg 55%
    16:00 +17°C° 0 mm 4 m/s 761 mmHg 60%
    17:00 +16°C° 0 mm 3 m/s 760 mmHg 65%
    18:00 +14°C° 0 mm 3 m/s 760 mmHg 66%
    19:00 +13°C° 0 mm 3 m/s 760 mmHg 68%
    20:00 +13°C° 0 mm 3 m/s 760 mmHg 70%
    21:00 +12°C° 0 mm 3 m/s 761 mmHg 71%
    22:00 +13°C° 0 mm 2 m/s 761 mmHg 73%
    23:00 +12°C° 0 mm 2 m/s 761 mmHg 75%

    27 Janvier, Dimanche

    Heure Température Précipitation Vent Pression Humidité
    00:00 +12°C° 0 mm 3 m/s 760 mmHg 74%
    01:00 +12°C° 0 mm 5 m/s 760 mmHg 73%
    02:00 +11°C° 0 mm 6 m/s 760 mmHg 71%
    03:00 +11°C° 0 mm 6 m/s 760 mmHg 73%
    04:00 +11°C° 0 mm 6 m/s 760 mmHg 74%
    05:00 +10°C° 0 mm 5 m/s 760 mmHg 76%
    06:00 +12°C° 0.4 mm 5 m/s 760 mmHg 76%
    07:00 +11°C° 0.4 mm 6 m/s 761 mmHg 77%
    08:00 +13°C° 0.4 mm 6 m/s 761 mmHg 78%
    09:00 +12°C° 0.9 mm 7 m/s 761 mmHg 74%
    10:00 +14°C° 0.9 mm 7 m/s 761 mmHg 71%
    11:00 +15°C° 0.9 mm 8 m/s 761 mmHg 67%
    12:00 +15°C° 0.8 mm 9 m/s 761 mmHg 66%
    13:00 +14°C° 0.8 mm 10 m/s 761 mmHg 65%
    14:00 +13°C° 0.8 mm 10 m/s 761 mmHg 64%
    15:00 +13°C° 0.5 mm 10 m/s 761 mmHg 68%
    16:00 +12°C° 0.5 mm 10 m/s 762 mmHg 73%
    17:00 +12°C° 0.5 mm 10 m/s 762 mmHg 78%
    18:00 +12°C° 0.1 mm 10 m/s 763 mmHg 77%
    19:00 +12°C° 0.1 mm 10 m/s 763 mmHg 76%
    20:00 +12°C° 0.1 mm 10 m/s 764 mmHg 75%
    21:00 +12°C° 0 mm 9 m/s 764 mmHg 76%
    22:00 +12°C° 0 mm 9 m/s 765 mmHg 78%
    23:00 +12°C° 0 mm 9 m/s 765 mmHg 79%
    Voir plus